Location: Melizzano
(41.1500°N, 14.5000°E)
Time: 08:14:57
(UTC+00:00)

Cosmos 1709 Rocket - Pass Details

Date: 02 October 2021
Orbit: 948 x 1002 km, 82.9° (Epoch: 27 October)

Event Time Altitude Azimuth Distance (km) Brightness Sun altitude
Rises 17:52:08 0° 244° (WSW) 3,643 8.0 -14.0°
Reaches altitude 10° 17:56:40 10° 275° (W) 2,690 7.7 -14.8°
Maximum altitude 17:58:48 12° 296° (WNW) 2,555 7.3 -15.2°
Drops below altitude 10° 18:00:57 10° 317° (NW) 2,686 7.1 -15.6°
Sets 18:05:30 0° 348° (NNW) 3,631 7.3 -16.5°
